Date String (YYYY-MM-DD hh:mm:ss) UTC,Instrument flags,Ambient pressure (hPa),Sample flow (lpm),Bypass flow (lpm),Sample temperature (°C),Ambient temperature (°C),ASC tube jacket temperature (°C),LED temperature (°C),Box temperature (°C),Sample RH (%),Span deviation,Mass concentration (μg/m³),Mass concentration (μg/m³),Mass concentration (μg/m³)
DateTimeUTC,F1_M11,P_M11,Q1_M11,Q2_M11,T1_M11,T2_M11,T3_M11,T4_M11,T5_M11,U1_M11,ZSPAN_M11,X2_M11,X0_M11,X1_M11
2023-05-23 12:00:00,,0830.0,5.00,0.00,28.9,27.1,00.0,37.3,30.5,17.6,0003.5,0017.36,0023.51,0016.61
2023-05-23 12:01:00,,0830.0,5.00,0.00,28.9,27.1,00.0,37.3,30.4,17.6,0003.5,0017.39,0023.48,0016.61
2023-05-23 12:02:00,,0830.0,5.01,0.00,28.9,27.1,00.0,37.3,30.4,17.5,0003.4,0017.36,0023.28,0016.60
2023-05-23 12:03:00,,0830.0,5.01,0.00,28.9,27.0,00.0,37.2,30.4,17.5,0003.4,0017.38,0023.36,0016.62
2023-05-23 12:04:00,,0830.1,5.00,0.00,28.9,27.1,00.0,37.2,30.4,17.4,0003.6,0017.44,0023.48,0016.66
2023-05-23 12:05:00,,0830.1,5.00,0.00,28.9,27.1,00.0,37.2,30.4,17.5,0003.7,0017.49,0023.52,0016.70
2023-05-23 12:06:00,,0830.1,5.00,0.00,28.9,27.1,00.0,37.2,30.4,17.6,0003.8,0017.54,0024.47,0016.73
2023-05-23 12:07:00,,0830.1,5.00,0.00,28.9,27.1,00.0,37.2,30.4,17.6,0003.8,0017.56,0024.50,0016.76
2023-05-23 12:08:00,,0830.2,4.99,0.00,28.8,27.1,00.0,37.2,30.4,18.3,0003.7,0017.60,0024.94,0016.79
2023-05-23 12:09:00,,0830.2,5.00,0.00,28.8,27.1,00.0,37.2,30.4,18.1,0003.7,0017.62,0025.06,0016.81
2023-05-23 12:10:00,,0830.2,4.99,0.00,28.8,27.1,00.0,37.2,30.4,17.9,0003.6,0017.69,0025.24,0016.86
2023-05-23 12:11:00,,0830.3,5.00,0.00,28.8,27.1,00.0,37.2,30.4,17.9,0003.7,0017.70,0025.26,0016.90
2023-05-23 12:12:00,,0830.3,5.01,0.00,28.8,27.1,00.0,37.2,30.4,17.8,0003.7,0017.73,0025.39,0016.93
2023-05-23 12:13:00,,0830.3,5.00,0.00,28.8,27.1,00.0,37.2,30.4,17.8,0003.8,0017.86,0025.62,0017.01
2023-05-23 12:14:00,,0830.3,5.00,0.00,28.8,27.1,00.0,37.2,30.4,17.9,0003.8,0017.99,0025.86,0017.09
2023-05-23 12:15:00,,0830.3,5.01,0.00,28.8,27.0,00.0,37.2,30.4,17.8,0003.8,0018.01,0025.81,0017.12
2023-05-23 12:16:00,,0830.3,5.00,0.00,28.8,27.0,00.0,37.2,30.4,17.9,0003.6,0018.06,0026.10,0017.18
2023-05-23 12:17:00,,0830.2,5.00,0.00,28.8,27.0,00.0,37.2,30.4,18.0,0003.6,0018.13,0025.84,0017.25
2023-05-23 12:18:00,,0830.2,5.01,0.00,28.8,27.0,00.0,37.2,30.4,18.1,0003.6,0018.19,0025.87,0017.31
2023-05-23 12:19:00,,0830.2,5.00,0.00,28.8,27.1,00.0,37.2,30.4,18.2,0003.6,0018.22,0025.73,0017.34
2023-05-23 12:20:00,,0830.2,5.00,0.00,28.8,27.1,00.0,37.2,30.4,18.3,0003.6,0018.32,0026.28,0017.44
2023-05-23 12:21:00,,0830.3,4.99,0.00,28.8,27.1,00.0,37.2,30.4,18.4,0003.6,0018.42,0026.32,0017.58
2023-05-23 12:22:00,,0830.3,5.00,0.00,28.8,27.1,00.0,37.2,30.4,18.3,0003.4,0018.63,0026.55,0017.78
2023-05-23 12:23:00,,0830.3,5.00,0.00,28.8,27.1,00.0,37.2,30.4,18.3,0003.4,0018.86,0027.35,0018.00
2023-05-23 12:24:00,,0830.3,4.99,0.00,28.8,27.2,00.0,37.2,30.4,18.3,0003.3,0018.97,0027.80,0018.14
2023-05-23 12:25:00,,0830.3,5.00,0.00,28.8,27.2,00.0,37.2,30.4,18.2,0003.5,0019.10,0028.18,0018.26
2023-05-23 12:26:00,,0830.3,5.00,0.00,28.8,27.2,00.0,37.2,30.4,18.5,0003.6,0019.38,0029.02,0018.52
2023-05-23 12:27:00,,0830.3,4.99,0.00,28.8,27.2,00.0,37.2,30.4,18.6,0003.7,0019.77,0029.41,0018.91
2023-05-23 12:28:00,,0830.3,4.99,0.00,28.9,27.2,00.0,37.2,30.4,18.5,0003.8,0020.18,0029.55,0019.33
2023-05-23 12:29:00,,0830.3,5.01,0.00,28.9,27.2,00.0,37.2,30.5,18.3,0003.8,0020.51,0029.82,0019.62
2023-05-23 12:30:00,,0830.3,5.00,0.00,28.9,27.2,00.0,37.2,30.5,18.2,0003.7,0020.69,0029.91,0019.82
2023-05-23 12:31:00,,0830.4,5.01,0.00,28.9,27.2,00.0,37.2,30.5,18.2,0003.8,0020.88,0029.66,0020.00
2023-05-23 12:32:00,,0830.4,5.01,0.00,28.9,27.2,00.0,37.2,30.5,18.3,0003.7,0021.08,0030.10,0020.18
2023-05-23 12:33:00,,0830.5,5.00,0.00,28.9,27.3,00.0,37.2,30.5,18.5,0003.8,0021.37,0031.22,0020.40
2023-05-23 12:34:00,,0830.4,4.99,0.00,28.9,27.3,00.0,37.2,30.5,18.4,0003.8,0021.64,0031.84,0020.64
2023-05-23 12:35:00,,0830.5,4.99,0.00,28.9,27.3,00.0,37.2,30.5,18.3,0003.8,0021.84,0031.92,0020.82
2023-05-23 12:36:00,,0830.4,5.01,0.00,28.9,27.3,00.0,37.2,30.5,18.3,0003.7,0022.07,0032.05,0021.04
2023-05-23 12:37:00,,0830.4,5.00,0.00,28.9,27.3,00.0,37.2,30.5,18.3,0003.6,0022.21,0031.95,0021.13
2023-05-23 12:38:00,,0830.5,4.99,0.00,28.9,27.3,00.0,37.2,30.5,18.8,0003.6,0022.35,0032.73,0021.23
2023-05-23 12:39:00,,0830.4,5.00,0.00,28.9,27.3,00.0,37.2,30.5,19.2,0003.5,0022.69,0033.59,0021.53
2023-05-23 12:40:00,,0830.5,5.00,0.00,28.9,27.3,00.0,37.2,30.5,19.1,0003.4,0023.08,0034.25,0021.87
2023-05-23 12:41:00,,0830.6,5.00,0.00,28.9,27.3,00.0,37.2,30.5,19.1,0003.5,0023.56,0034.80,0022.28
2023-05-23 12:42:00,,0830.5,5.00,0.00,28.9,27.3,00.0,37.2,30.5,19.2,0003.5,0024.07,0036.00,0022.75
2023-05-23 12:43:00,,0830.6,5.00,0.00,28.9,27.3,00.0,37.3,30.5,19.3,0003.5,0024.51,0036.65,0023.13
2023-05-23 12:44:00,,0830.6,5.00,0.00,29.0,27.3,00.0,37.3,30.6,19.4,0003.5,0024.54,0036.00,0023.22
2023-05-23 12:45:00,,0830.6,4.99,0.00,29.0,27.3,00.0,37.3,30.6,19.6,0003.6,0024.72,0035.35,0023.43
2023-05-23 12:46:00,,0830.6,5.00,0.00,29.0,27.3,00.0,37.3,30.6,19.7,0003.6,0025.16,0035.77,0023.87
2023-05-23 12:47:00,,0830.6,5.00,0.00,29.0,27.3,00.0,37.3,30.6,19.7,0003.4,0025.54,0036.38,0024.24
2023-05-23 12:48:00,,0830.6,5.00,0.00,29.0,27.3,00.0,37.3,30.6,19.6,0003.4,0025.87,0037.26,0024.60
2023-05-23 12:49:00,,0830.6,5.00,0.00,29.0,27.3,00.0,37.3,30.6,19.7,0003.3,0026.03,0037.33,0024.78
2023-05-23 12:50:00,,0830.6,4.99,0.00,29.0,27.4,00.0,37.3,30.6,19.7,0003.2,0025.99,0037.13,0024.79
2023-05-23 12:51:00,,0830.6,5.00,0.00,29.0,27.4,00.0,37.3,30.6,19.5,0003.3,0025.99,0037.02,0024.82
2023-05-23 12:52:00,,0830.6,5.01,0.00,29.0,27.4,00.0,37.3,30.6,19.5,0003.4,0026.04,0037.16,0024.84
2023-05-23 12:53:00,,0830.6,5.00,0.00,29.0,27.4,00.0,37.3,30.6,19.5,0003.4,0026.02,0037.19,0024.82
2023-05-23 12:54:00,,0830.6,4.99,0.00,29.0,27.4,00.0,37.3,30.6,19.4,0003.5,0025.97,0037.57,0024.80
2023-05-23 12:55:00,,0830.6,4.99,0.00,29.0,27.4,00.0,37.3,30.6,19.4,0003.6,0026.14,0037.78,0024.95
2023-05-23 12:56:00,,0830.7,5.00,0.00,29.0,27.4,00.0,37.3,30.6,19.4,0003.6,0026.18,0037.94,0024.95
2023-05-23 12:57:00,,0830.7,5.01,0.00,29.0,27.4,00.0,37.3,30.6,19.2,0003.6,0026.03,0037.82,0024.79
2023-05-23 12:58:00,,0830.7,5.01,0.00,29.0,27.4,00.0,37.3,30.6,19.4,0003.8,0025.87,0037.43,0024.63
2023-05-23 12:59:00,,0830.7,5.00,0.00,29.0,27.4,00.0,37.3,30.6,19.6,0003.9,0025.78,0036.88,0024.55
